Krabi, Thailand

1:34 PM +07 on December 13, 2017 (GMT +0700)
Krabi

Weather History for VTSG - August, 2014

Change the Weather History Date:

Friday, August 15, 2014

  Actual Average (VTSP) Record (VTSP)
Temperature  
Mean Temperature 81 °F -  
Max Temperature 87 °F 88 °F 95 °F (1997)
Min Temperature 73 °F 78 °F 73 °F (2008)
Cooling Degree Days 16    
Growing Degree Days 31 (Base 50)    
Moisture  
Dew Point 74 °F    
Average Humidity 83    
Maximum Humidity 94    
Minimum Humidity 62    
Precipitation  
Precipitation 0.00 in - - ()
Sea Level Pressure  
Sea Level Pressure 29.88 in    
Wind  
Wind Speed 7 mph ()    
Max Wind Speed 48 mph    
Max Gust Speed -    
Visibility 5.6 miles    
Events Rain    
Averages and records for this station are not official NWS values.
T = Trace of Precipitation, MM = Missing Value Source: Averaged Metar Reports

Daily Weather History Graph

Daily Weather History Graph

Search for Another Location

Airport or City:

Trip Planner

Search our weather history database for the weather conditions in past years. The results will help you decide how hot, cold, wet, or windy it might be!

Date:

Astronomy

Aug. 15, 2014 Rise Set
Actual Time 6:17 AM +07 6:40 PM +07
Civil Twilight 5:55 AM +07 7:01 PM +07
Nautical Twilight 5:30 AM +07 7:26 PM +07
Astronomical Twilight 5:04 AM +07 7:52 PM +07
Moon 10:33 PM +07 (8/15) 10:18 AM +07 (8/15)
Length of Visible Light 13h 06m
Length of Day
12h 23m
Waning Gibbous, 74% of the Moon is Illuminated
Aug 15
Waning Gibbous
Aug 17
Last Quarter
Aug 25
New
Sep 2
First Quarter
Sep 9
Full

Hourly Weather History & Observations

Time (+07) Temp. Heat Index Dew Point Humidity Pressure Visibility Wind Dir Wind Speed Gust Speed Precip Events Conditions
12:00 AM 78.8 °F - 75.2 °F 89% 29.89 in 5.0 mi Variable 2.3 mph - N/A   Partly Cloudy
1:00 AM 78.8 °F - 75.2 °F 89% 29.89 in 5.0 mi Variable 1.2 mph - N/A   Partly Cloudy
2:00 AM 77.0 °F - 75.2 °F 94% 29.86 in 4.3 mi NNE 48.3 mph - N/A   Partly Cloudy
5:00 AM 75.2 °F - 73.4 °F 94% 29.86 in 5.0 mi Calm Calm - N/A   Mostly Cloudy
6:00 AM 75.2 °F - 73.4 °F 94% 29.86 in 5.6 mi Variable 2.3 mph - N/A   Scattered Clouds
7:00 AM 75.2 °F - 73.4 °F 94% 29.89 in 5.6 mi Variable 2.3 mph - N/A   Scattered Clouds
8:00 AM 77.0 °F - 75.2 °F 94% 29.89 in 6.2 mi Variable 2.3 mph - N/A   Scattered Clouds
9:00 AM 80.6 °F 86.2 °F 75.2 °F 84% 29.92 in 6.2 mi WSW 3.5 mph - N/A   Scattered Clouds
10:00 AM 86.0 °F 95.1 °F 75.2 °F 70% 29.92 in 6.2 mi WSW 4.6 mph - N/A   Scattered Clouds
11:00 AM 86.0 °F 95.1 °F 75.2 °F 70% 29.92 in 6.2 mi SSW 9.2 mph - N/A   Mostly Cloudy
12:00 PM 87.8 °F 95.6 °F 73.4 °F 62% 29.89 in 5.6 mi SW 12.7 mph - N/A   Mostly Cloudy
1:00 PM 86.0 °F 93.4 °F 73.4 °F 66% 29.89 in 5.6 mi SSW 12.7 mph - N/A   Mostly Cloudy
2:00 PM 87.8 °F 95.6 °F 73.4 °F 62% 29.86 in 6.2 mi SW 13.8 mph - N/A   Mostly Cloudy
3:00 PM 84.2 °F 89.6 °F 71.6 °F 66% 29.86 in 5.6 mi WSW 12.7 mph - N/A   Mostly Cloudy
4:00 PM 86.0 °F 93.4 °F 73.4 °F 66% 29.83 in 6.2 mi WNW 11.5 mph - N/A   Scattered Clouds
5:00 PM 80.6 °F 85.4 °F 73.4 °F 79% 29.83 in 6.2 mi West 5.8 mph - N/A   Partly Cloudy
6:00 PM 77.0 °F - 73.4 °F 89% 29.86 in 5.0 mi Variable 2.3 mph - N/A Rain Rain
7:00 PM 77.0 °F - 73.4 °F 89% 29.83 in 5.0 mi Variable 2.3 mph - N/A Rain Light Rain
8:00 PM 77.0 °F - 73.4 °F 89% 29.86 in 6.2 mi Variable 2.3 mph - N/A   Partly Cloudy
9:00 PM 75.2 °F - 73.4 °F 94% 29.86 in 5.6 mi Calm Calm - N/A   Partly Cloudy
10:00 PM 75.2 °F - 73.4 °F 94% 29.89 in 5.6 mi Calm Calm - N/A   Partly Cloudy
11:00 PM 73.4 °F - 71.6 °F 94% 29.92 in 5.6 mi Calm Calm - N/A   Partly Cloudy